Retour au catalogue

COSMOS 952 DEB

ActifLEO
NORAD 44567·DEBRIS·🇷🇺 Russia

Lancé Sep 16, 1977 depuis Baikonur Cosmodrome

Loading…

Prochains Passages (prochaines 24 heures)

TLE

VieillissantSource: Space-Track

Époque: Sep 8, 2026, 07:35 UTC

1 44567U 77088D   26251.31624589  .00000087  00000-0  15249-3 0  9999
2 44567  64.9331 257.4808 0050708 335.1553  38.4827 13.85715526647173

Suivez COSMOS 952 DEB en temps réel avec AllMySat

Download on the App Store